Newport Airport, OR

1:59 PM PDT on August 22, 2017 (GMT -0700)
Newport Municipal

Weather History for KONP - April, 2013

Change the Weather History Date:

Friday, April 26, 2013

  Actual Average Record
Temperature  
Mean Temperature 47 °F -  
Max Temperature 53 °F 54 °F 78 °F (2004)
Min Temperature 41 °F 43 °F 35 °F (2014)
Degree Days  
Heating Degree Days 18    
Moisture  
Dew Point 46 °F    
Average Humidity 93    
Maximum Humidity 100    
Minimum Humidity 82    
Precipitation  
Precipitation 0.00 in - - ()
Sea Level Pressure  
Sea Level Pressure 30.26 in    
Wind  
Wind Speed 4 mph (North)    
Max Wind Speed 18 mph    
Max Gust Speed 22 mph    
Visibility 6 miles    
Events Fog    
Averages and records for this station are not official NWS values.
T = Trace of Precipitation, MM = Missing Value Source: NWS Daily Summary

Daily Weather History Graph

Daily Weather History Graph

Search for Another Location

Airport or City:

Trip Planner

Search our weather history database for the weather conditions in past years. The results will help you decide how hot, cold, wet, or windy it might be!

Date:

Astronomy

Apr. 26, 2013 Rise Set
Actual Time 6:13 AM PDT 8:15 PM PDT
Civil Twilight 5:42 AM PDT 8:46 PM PDT
Nautical Twilight 5:03 AM PDT 9:25 PM PDT
Astronomical Twilight 4:20 AM PDT 10:08 PM PDT
Moon 9:47 PM PDT (4/26) 6:43 AM PDT (4/26)
Length of Visible Light 15h 04m
Length of Day
14h 01m
Full, 99% of the Moon is Illuminated
Apr 26
Full
May 2
Last Quarter
May 9
New
May 17
First Quarter
May 24
Full

Hourly Weather History & Observations

Time (PDT) Temp. Windchill Dew Point Humidity Pressure Visibility Wind Dir Wind Speed Gust Speed Precip Events Conditions
12:15 AM 44.6 °F - 42.8 °F 93% 30.21 in 4.0 mi Calm Calm - N/A   Scattered Clouds
12:35 AM 42.8 °F - 42.8 °F 100% 30.21 in 4.0 mi Calm Calm - N/A   Mostly Cloudy
12:55 AM 41.0 °F - 41.0 °F 100% 30.22 in 5.0 mi Calm Calm - N/A   Mostly Cloudy
1:15 AM 42.8 °F - 42.8 °F 100% 30.22 in 4.0 mi Calm Calm - N/A   Overcast
1:35 AM 42.8 °F 41.1 °F 42.8 °F 100% 30.22 in 3.0 mi NNE 3.5 mph - N/A   Overcast
1:55 AM 44.6 °F 43.1 °F 44.6 °F 100% 30.22 in 1.2 mi East 3.5 mph - N/A   Overcast
2:15 AM 44.6 °F - 44.6 °F 100% 30.23 in 0.5 mi Calm Calm - N/A Fog Fog
2:35 AM 44.6 °F 43.1 °F 44.6 °F 100% 30.22 in 0.5 mi ENE 3.5 mph - N/A Fog Fog
2:55 AM 44.6 °F - 44.6 °F 100% 30.23 in 0.2 mi Calm Calm - N/A Fog Fog
3:15 AM 44.6 °F 42.2 °F 44.6 °F 100% 30.23 in 0.2 mi East 4.6 mph - N/A Fog Fog
3:35 AM 44.6 °F 43.1 °F 44.6 °F 100% 30.23 in 0.5 mi East 3.5 mph - N/A Fog Fog
3:55 AM 44.6 °F - 44.6 °F 100% 30.23 in 0.5 mi Calm Calm - N/A Fog Fog
4:15 AM 44.6 °F 43.1 °F 44.6 °F 100% 30.23 in 0.2 mi ENE 3.5 mph - N/A Fog Fog
4:35 AM 44.6 °F - 42.8 °F 93% 30.24 in 0.2 mi Calm Calm - N/A Fog Fog
4:55 AM 44.6 °F 43.1 °F 44.6 °F 100% 30.24 in 0.2 mi NE 3.5 mph - N/A Fog Fog
5:15 AM 44.6 °F - 44.6 °F 100% 30.24 in 0.2 mi Calm Calm - N/A Fog Fog
5:35 AM 44.6 °F - 44.6 °F 100% 30.24 in 0.2 mi Calm Calm - N/A Fog Fog
5:55 AM 44.6 °F 43.1 °F 44.6 °F 100% 30.24 in 0.2 mi NNE 3.5 mph - N/A Fog Fog
6:15 AM 44.6 °F 42.2 °F 44.6 °F 100% 30.24 in 0.2 mi NNW 4.6 mph - N/A Fog Fog
6:35 AM 42.8 °F 41.1 °F 42.8 °F 100% 30.25 in 0.2 mi North 3.5 mph - N/A Fog Fog
6:55 AM 42.8 °F 41.1 °F 42.8 °F 100% 30.25 in 0.2 mi NE 3.5 mph - N/A Fog Fog
7:15 AM 44.6 °F 43.1 °F 44.6 °F 100% 30.25 in 0.2 mi ENE 3.5 mph - N/A Fog Fog
7:35 AM 44.6 °F 43.1 °F 44.6 °F 100% 30.26 in 0.2 mi NE 3.5 mph - N/A Fog Fog
7:55 AM 44.6 °F - 44.6 °F 100% 30.27 in 0.2 mi Calm Calm - N/A Fog Fog
8:15 AM 44.6 °F 42.2 °F 44.6 °F 100% 30.26 in 0.2 mi ENE 4.6 mph - N/A Fog Fog
8:35 AM 44.6 °F 43.1 °F 44.6 °F 100% 30.27 in 0.2 mi ENE 3.5 mph - N/A Fog Fog
8:55 AM 46.4 °F 44.3 °F 46.4 °F 100% 30.26 in 0.5 mi East 4.6 mph - N/A Fog Fog
9:15 AM 46.4 °F 44.3 °F 46.4 °F 100% 30.26 in 4.0 mi ENE 4.6 mph - N/A   Mostly Cloudy
9:35 AM 46.4 °F 42.4 °F 46.4 °F 100% 30.27 in 3.0 mi NNW 8.1 mph - N/A   Scattered Clouds
9:55 AM 46.4 °F 42.4 °F 46.4 °F 100% 30.28 in 0.5 mi NNW 8.1 mph - N/A Fog Fog
10:15 AM 46.4 °F 44.3 °F 46.4 °F 100% 30.28 in 0.5 mi NW 4.6 mph - N/A Fog Fog
10:35 AM 48.2 °F - 46.4 °F 93% 30.27 in 10.0 mi NNW 3.5 mph - N/A   Scattered Clouds
10:55 AM 50.0 °F - 50.0 °F 100% 30.27 in 10.0 mi NW 4.6 mph - N/A   Clear
11:15 AM 51.8 °F - 51.8 °F 100% 30.27 in 10.0 mi NNW 3.5 mph - N/A   Clear
11:35 AM 53.6 °F - 50.0 °F 88% 30.27 in 10.0 mi WNW 4.6 mph - N/A   Clear
11:55 AM 51.8 °F - 46.4 °F 82% 30.27 in 10.0 mi NNW 8.1 mph - N/A   Clear
12:15 PM 51.8 °F - 46.4 °F 82% - 10.0 mi NNW 6.9 mph - N/A   Clear
12:35 PM 53.6 °F - 48.2 °F 82% 30.27 in 10.0 mi NW 8.1 mph - N/A   Clear
12:55 PM 50.0 °F - 46.4 °F 87% 30.29 in 4.0 mi NNW 11.5 mph - N/A   Scattered Clouds
1:15 PM 51.8 °F - 46.4 °F 82% 30.28 in 10.0 mi NNW 6.9 mph - N/A   Scattered Clouds
1:35 PM 50.0 °F - 46.4 °F 87% 30.29 in 10.0 mi NNW 10.4 mph - N/A   Clear
1:55 PM 51.8 °F - 46.4 °F 82% 30.29 in 10.0 mi NW 12.7 mph - N/A   Clear
2:15 PM 51.8 °F - 46.4 °F 82% 30.29 in 3.0 mi NNW 18.4 mph - N/A   Scattered Clouds
2:35 PM 51.8 °F - 48.2 °F 88% 30.29 in 10.0 mi NNW 13.8 mph - N/A   Scattered Clouds
2:55 PM 53.6 °F - 48.2 °F 82% 30.28 in 10.0 mi NW 9.2 mph - N/A   Clear
3:15 PM 53.6 °F - 48.2 °F 82% 30.28 in 10.0 mi NW 10.4 mph - N/A   Clear
3:35 PM 51.8 °F - 46.4 °F 82% 30.28 in 10.0 mi NW 12.7 mph - N/A   Clear
3:55 PM 50.0 °F - 46.4 °F 87% 30.28 in 1.8 mi NNW 12.7 mph - N/A   Mostly Cloudy
4:15 PM 51.8 °F - 46.4 °F 82% 30.27 in 10.0 mi NNW 10.4 mph - N/A   Scattered Clouds
4:35 PM 51.8 °F - 46.4 °F 82% 30.27 in 10.0 mi NNW 17.3 mph - N/A   Clear
4:55 PM 53.6 °F - 48.2 °F 82% 30.27 in 10.0 mi NNW 13.8 mph 21.9 mph N/A   Clear
5:15 PM 53.6 °F - 48.2 °F 82% 30.26 in 10.0 mi NNW 13.8 mph - N/A   Clear
5:35 PM 53.6 °F - 48.2 °F 82% 30.26 in 10.0 mi NNW 10.4 mph - N/A   Clear
5:55 PM 53.6 °F - 48.2 °F 82% 30.26 in 10.0 mi NNW 12.7 mph 17.3 mph N/A   Clear
6:15 PM 53.6 °F - 48.2 °F 82% 30.26 in 10.0 mi NNW 9.2 mph - N/A   Clear
6:35 PM 51.8 °F - 46.4 °F 82% 30.26 in 10.0 mi NNW 11.5 mph 17.3 mph N/A   Clear
6:55 PM 50.0 °F - 46.4 °F 87% 30.26 in 10.0 mi NNW 6.9 mph - N/A   Clear
7:15 PM 50.0 °F - 46.4 °F 87% 30.27 in 10.0 mi NNW 11.5 mph - N/A   Clear
7:35 PM 50.0 °F - 46.4 °F 87% 30.27 in 10.0 mi NNW 10.4 mph - N/A   Clear
7:55 PM 50.0 °F - 46.4 °F 87% 30.28 in 10.0 mi NNW 11.5 mph 16.1 mph N/A   Clear
8:15 PM 50.0 °F - 46.4 °F 87% 30.28 in 10.0 mi NNW 13.8 mph - N/A   Clear
8:35 PM 50.0 °F - 46.4 °F 87% 30.28 in 10.0 mi NNW 12.7 mph - N/A   Clear
8:55 PM 48.2 °F - 46.4 °F 93% 30.29 in 10.0 mi North 3.5 mph - N/A   Clear
9:15 PM 50.0 °F - 46.4 °F 87% 30.29 in 10.0 mi Calm Calm - N/A   Clear
9:35 PM 46.4 °F 45.2 °F 44.6 °F 93% 30.29 in 10.0 mi SSW 3.5 mph - N/A   Clear
9:55 PM 44.6 °F 42.2 °F 42.8 °F 93% 30.29 in 7.0 mi South 4.6 mph - N/A   Clear
10:15 PM 44.6 °F 43.1 °F 42.8 °F 93% 30.29 in 7.0 mi SSW 3.5 mph - N/A   Clear
10:35 PM 44.6 °F - 42.8 °F 93% 30.29 in 7.0 mi Calm Calm - N/A   Clear
10:55 PM 42.8 °F 41.1 °F 42.8 °F 100% 30.29 in 7.0 mi South 3.5 mph - N/A   Scattered Clouds
11:15 PM 44.6 °F 42.2 °F 42.8 °F 93% 30.30 in 5.0 mi South 4.6 mph - N/A   Overcast
11:35 PM 44.6 °F 42.2 °F 44.6 °F 100% 30.30 in 7.0 mi SSW 4.6 mph - N/A   Overcast
11:55 PM 46.4 °F 45.2 °F 44.6 °F 93% 30.31 in 7.0 mi SSW 3.5 mph - N/A   Overcast